Latest Conditions
At L.F.Wade Int. Airport
Recorded at 11:55 am
Partly Cloudy
Temp.: 
28°C/83°F
Humidity: 
70%
Wind: 
ENE 7KT
or 8mph
UV Index: 
8
Island Observations
Observations
Sunday, August 30, 2015

Observations are in local time and taken at least once an hour, or upon the start and end of specified events such as showers and thunderstorms.

Time Sky / Weather Wind Speed/Gusts Temp. R.H. Pressure
     knots (mph)  °C (°F)  %  mb / "Hg
 11:55 Partly Cloudy  ENE 7/0 (8/0) 28(83) 70 1022 / 30.19
 10:55 Partly Cloudy  NNE 7/0 (8/0) 28(83) 74 1022 / 30.19
 09:55 Partly Cloudy  ENE 7/0 (8/0) 28(83) 75 1022 / 30.17
 08:55 Few Clouds  ENE 9/0 (10/0) 28(82) 75 1022 / 30.17
 07:55 Few Clouds  NE 8/0 (9/0) 27(81) 78 1021 / 30.16
 06:55 Partly Cloudy  ENE 7/0 (8/0) 27(80) 80 1021 / 30.15
 05:55 Partly Cloudy  ENE 6/0 (7/0) 27(80) 79 1021 / 30.14
 04:55 Few Clouds  NE 7/0 (8/0) 27(80) 79 1020 / 30.13
 03:55 Few Clouds  NNE 7/0 (8/0) 27(80) 78 1020 / 30.13
 02:55 Few Clouds  NNE 6/0 (7/0) 27(80) 78 1021 / 30.14
 01:55 Partly Cloudy  NNE 6/0 (7/0) 27(81) 80 1021 / 30.15
 00:55 Partly Cloudy  N 6/0 (7/0) 27(81) 79 1021 / 30.16
 23:55 Few Clouds  N 7/0 (8/0) 27(81) 76 1021 / 30.16
 22:55 Partly Cloudy  N 7/0 (8/0) 27(81) 77 1021 / 30.16
 21:55 Partly Cloudy  NNW 7/0 (8/0) 28(82) 77 1021 / 30.15
 20:55 Mostly Cloudy  N 6/0 (7/0) 28(82) 77 1021 / 30.15
 19:55 Mostly Cloudy  N 7/0 (8/0) 28(82) 78 1021 / 30.14
 18:55 Mostly Cloudy  NNW 9/0 (10/0) 29(83) 74 1021 / 30.14
 17:55 Mostly Cloudy  NW 11/0 (13/0) 29(85) 74 1021 / 30.14
 16:55 Mostly Cloudy  NW 13/0 (15/0) 29(84) 74 1021 / 30.14
 15:55 Mostly Cloudy  NW 12/0 (14/0) 30(85) 75 1021 / 30.15
 14:55 Mostly Cloudy  NW 13/0 (15/0) 30(85) 74 1021 / 30.16
 13:55 Partly Cloudy  NW 13/0 (15/0) 30(85) 76 1022 / 30.17
 12:55 Partly Cloudy  NW 14/0 (16/0) 30(85) 76 1022 / 30.18
Observations from our AWOS sites are available here (password and username are both 'guest').